YO6IKB-10 Weather Reports


time (UTC)temp
F
wind
direction
speed
knots
gust
knots
rain 1hr
in
rain 24hr
in
rain mn
in
humidity
%
barometer
mb
20260903025202 54 292 0.0 1.7 0.00 0.00 0.00 82 1016.2
20260903024701 55 292 0.9 1.7 0.00 0.00 0.00 82 1016.1
20260903024201 55 292 0.0 0.0 0.00 0.00 0.00 82 1016.0
20260903023701 55 292 0.0 0.0 0.00 0.00 0.00 81 1016.0
20260903023200 55 292 0.0 0.9 0.00 0.00 0.00 81 1016.1
20260903022700 55 292 0.9 0.9 0.00 0.00 0.00 81 1016.2
20260903022200 55 292 0.9 0.9 0.00 0.00 0.00 81 1016.2
20260903021700 55 292 0.0 0.9 0.00 0.00 0.00 81 1016.2
20260903021159 55 292 0.0 0.0 0.00 0.00 0.00 81 1016.3
20260903020659 55 315 0.0 0.0 0.00 0.00 0.00 81 1016.3
20260903020159 55 292 0.0 0.0 0.00 0.00 0.00 81 1016.5
20260903015658 55 135 0.0 0.0 0.00 0.00 0.00 82 1016.4
20260903015158 55 292 0.0 0.0 0.00 0.00 0.00 82 1016.4
20260903014658 55 292 0.0 0.0 0.00 0.00 0.00 82 1016.3
20260903014157 56 292 0.0 0.0 0.00 0.00 0.00 82 1016.4
20260903013657 56 292 0.0 0.0 0.00 0.00 0.00 82 1016.3
20260903013157 55 292 0.0 0.9 0.00 0.00 0.00 82 1016.4
20260903012657 56 292 0.0 0.9 0.00 0.00 0.00 82 1016.3
20260903012156 55 292 0.9 0.9 0.00 0.00 0.00 82 1016.4
20260903011656 55 292 0.0 0.0 0.00 0.00 0.00 82 1016.3
20260903011156 176 292 0.0 0.9 0.00 0.00 0.00 82 1016.3
20260903010655 55 292 0.0 0.0 0.00 0.00 0.00 81 1016.3
20260903010155 55 292 0.0 0.0 0.00 0.00 0.00 81 1016.4
20260903005655 55 292 0.0 1.7 0.00 0.00 0.00 81 1016.3
20260903005155 55 292 1.7 1.7 0.00 0.00 0.00 80 1016.3
20260903004654 55 292 0.0 0.0 0.00 0.00 0.00 80 1016.3
20260903004154 56 292 0.0 0.0 0.00 0.00 0.00 79 1016.3
20260903003654 55 292 0.0 0.0 0.00 0.00 0.00 79 1016.3
20260903003153 56 292 0.0 0.9 0.00 0.00 0.00 79 1016.4
20260903002653 56 292 0.9 0.9 0.00 0.00 0.00 79 1016.4
20260903002153 56 292 0.0 1.7 0.00 0.00 0.00 79 1016.4
20260903001652 56 292 1.7 3.5 0.00 0.00 0.00 79 1016.5
20260903001152 56 292 1.7 1.7 0.00 0.00 0.00 79 1016.5
20260903000652 56 292 0.9 2.6 0.00 0.00 0.00 80 1016.5
20260903000152 56 337 0.0 1.7 0.00 0.00 0.00 80 1016.3
20260902235651 57 337 1.7 2.6 0.00 0.00 0.00 80 1016.4
20260902235151 57 337 0.0 2.6 0.00 0.00 0.00 80 1016.2
20260902234651 57 0 0.0 1.7 0.00 0.00 0.00 80 1016.2
20260902234150 57 337 0.9 2.6 0.00 0.00 0.00 79 1016.3
20260902233650 57 337 1.7 2.6 0.00 0.00 0.00 79 1016.2
20260902233150 57 22 0.0 1.7 0.00 0.00 0.00 79 1016.1
20260902232650 58 67 0.0 0.9 0.00 0.00 0.00 79 1016.1
20260902232149 58 67 0.0 0.0 0.00 0.00 0.00 79 1016.2
20260902231649 58 67 0.0 0.9 0.00 0.00 0.00 79 1016.2
20260902231149 58 67 0.0 1.7 0.00 0.00 0.00 79 1016.2
20260902230648 58 67 0.9 1.7 0.00 0.00 0.00 79 1016.1
20260902230148 58 0 0.0 1.7 0.00 0.00 0.00 78 1016.2
20260902225648 59 0 0.9 0.9 0.00 0.00 0.00 77 1016.3
20260902225147 59 337 0.0 0.0 0.00 0.00 0.00 77 1016.3
20260902224647 59 337 0.0 0.0 0.00 0.00 0.00 77 1016.3
20260902224147 59 337 0.0 0.9 0.00 0.00 0.00 77 1016.3
20260902223647 59 337 0.9 1.7 0.00 0.00 0.00 77 1016.2
20260902223146 59 337 0.9 1.7 0.00 0.00 0.00 77 1016.2
20260902222646 59 0 0.9 0.9 0.00 0.00 0.00 77 1016.3
20260902222146 60 337 0.0 0.9 0.00 0.00 0.00 77 1016.2
20260902221645 60 337 0.0 0.0 0.00 0.00 0.00 76 1016.2
20260902221145 60 337 0.0 2.6 0.00 0.00 0.00 76 1016.2
20260902220645 60 45 0.9 1.7 0.00 0.00 0.00 77 1016.2
20260902220145 60 22 0.9 3.5 0.00 0.00 0.00 77 1016.1
20260902215644 60 45 0.9 3.5 0.00 0.00 0.00 76 1016.2
20260902215144 60 292 1.7 1.7 0.00 0.00 0.00 76 1016.2
20260902214644 60 292 0.0 0.9 0.00 0.00 0.00 74 1016.2
20260902214143 61 292 0.0 0.9 0.00 0.00 0.00 73 1016.1
20260902213643 61 292 0.0 0.0 0.00 0.00 0.00 71 1016.1
20260902213143 61 292 0.0 0.0 0.00 0.00 0.00 71 1016.2
20260902212643 61 292 0.0 0.0 0.00 0.00 0.00 70 1016.2
20260902212142 61 292 0.0 0.9 0.00 0.00 0.00 71 1016.1
20260902211642 61 292 0.0 1.7 0.00 0.00 0.00 71 1016.0
20260902211142 61 292 0.9 0.9 0.00 0.00 0.00 71 1016.1
20260902210641 61 292 0.0 0.0 0.00 0.00 0.00 71 1016.0
20260902210141 61 292 0.0 0.9 0.00 0.00 0.00 71 1016.0
20260902205641 62 292 0.0 0.9 0.00 0.00 0.00 71 1016.0
20260902205140 62 292 0.0 1.7 0.00 0.00 0.00 71 1015.9
20260902204640 62 292 0.0 1.7 0.00 0.00 0.00 70 1015.9
20260902204140 63 292 0.0 0.9 0.00 0.00 0.00 68 1015.9
20260902203640 63 292 0.9 0.9 0.00 0.00 0.00 68 1016.0
20260902203139 63 292 0.9 1.7 0.00 0.00 0.00 67 1016.0
20260902202639 64 292 0.0 1.7 0.00 0.00 0.00 66 1016.0
20260902202139 64 292 0.0 0.0 0.00 0.00 0.00 65 1016.1
20260902201638 64 292 0.0 0.0 0.00 0.00 0.00 64 1016.0
20260902201138 64 292 0.0 0.0 0.00 0.00 0.00 63 1016.1
20260902200638 65 292 0.0 0.0 0.00 0.00 0.00 62 1016.1
20260902200138 65 292 0.0 0.9 0.00 0.00 0.00 63 1016.1
20260902195637 65 292 0.0 0.9 0.00 0.00 0.00 62 1016.1
20260902195137 65 292 0.0 0.0 0.00 0.00 0.00 61 1016.1
20260902194637 65 292 0.0 0.9 0.00 0.00 0.00 61 1016.1